Regional Weather Roundup
Issued by NWS

Home | Current Version | Previous Version | Graphics & Text | Print | Product List | Glossary On
Versions: 1 2 3 4 5 6 7 8 9 10 11 12 13 14 15 16 17 18 19 20 21 22 23 24 25 26 27 28 29 30 31 32 33 34 35 36 37 38 39 40 41 42 43 44 45 46 47 48 49 50
000
ASUS43 KIND 241109
RWRIN

WEATHER ROUNDUP FOR INDIANA
NATIONAL WEATHER SERVICE INDIANAPOLIS IN
600 AM EST TUE JAN 24 2017

NOTE: "FAIR" INDICATES FEW OR NO CLOUDS BELOW 12,000 FEET WITH NO
SIGNIFICANT WEATHER AND/OR OBSTRUCTIONS TO VISIBILITY.

* - STATION DOES NOT REPORT WEATHER SUCH AS PRECIPITATION OR FOG.

+ - STATION NOT QUALITY CONTROLLED BY THE NATIONAL WEATHER SERVICE.
    USE DATA WITH CAUTION...ESPECIALLY DEWPOINT AND RELATIVE
    HUMIDITY OBSERVATIONS.

INZ001>003-010>013-019-020-241200-
NORTHWEST INDIANA

CITY           SKY/WX    TMP DP  RH WIND       PRES   REMARKS
GARY /AIRPORT/ CLOUDY    39  34  81 NW10      29.84R
KNOX *+        CLOUDY    36  25  64 NW7       29.82R
LA PORTE +     CLOUDY    37  35  92 NW7       29.82S
MICHIGAN CITY+ CLOUDY    36  36 100 NW5       29.83R
MONTICELLO +   CLOUDY    38  34  85 NW8       29.82S
RENSSELAER +   CLOUDY    37  36  93 NW5       29.84S
VALPARAISO     CLOUDY    39  35  86 NW7       29.83R

$$

LMZ046-743>745-241200-
SOUTHERN LAKE MICHIGAN

STATION/POSITION TIME  TEMP    WIND        PRES    WAVE
                       AIR SEA DIR/SP/G            HT
                 (UTC) (F)     (DEG/KT/KT) (MB)    (FT)
BURNS HARBOR     1100   36     320/  8/ 13 1010.8
MICHIGAN CITY    1040   36     270/ 15/ 16   N/A

$$

INZ004-005-014>016-021>024-241200-
NORTH CENTRAL INDIANA

CITY           SKY/WX    TMP DP  RH WIND       PRES   REMARKS
GOSHEN         CLOUDY    39  35  86 NW12      29.78S
LOGANSPORT +   CLOUDY    37  34  87 NW8       29.83R
PERU/GRISSOM   CLOUDY    39  39 100 NW10      29.80R
ROCHESTER +    CLOUDY    41  37  87 NW7       29.82R
SOUTH BEND     CLOUDY    37  35  92 NW10      29.81R
WARSAW +       CLOUDY    37  34  87 NW8       29.79S FOG

$$

INZ006>009-017-018-025>027-241200-
NORTHEAST INDIANA

CITY           SKY/WX    TMP DP  RH WIND       PRES   REMARKS
ANGOLA *+      CLOUDY    39  28  65 NW7       29.75S
AUBURN +       CLOUDY    39  37  93 NW8       29.77S
FORT WAYNE     CLOUDY    40  37  89 NW8       29.77R
HUNTINGTON +   CLOUDY    38  37  96 NW8       29.78R FOG
KENDALLVILLE + CLOUDY    38  38 100 NW7       29.76S FOG

$$

INZ028-029-035-036-043>045-051>053-241200-
WEST CENTRAL INDIANA

CITY           SKY/WX    TMP DP  RH WIND       PRES   REMARKS
CRAWFORDSVL +  CLOUDY    37  37 100 NW7       29.84S
GREENCASTLE +  CLOUDY    37  34  87 NW6       29.84S
LAFAYETTE      CLOUDY    38  36  92 NW5       29.83S
TERRE HAUTE    CLOUDY    40  33  76 N5        29.86R

$$

INZ030>032-037>040-046>048-054>057-064-065-241200-
CENTRAL INDIANA

CITY           SKY/WX    TMP DP  RH WIND       PRES   REMARKS
CP ATTERBURY + CLOUDY    39  36  87 NW8       29.83R
FRANKFORT +    CLOUDY    41  37  85 N6        29.83S
GREENWOOD *+   CLOUDY    40  37  88 NW5       29.83R
INDIANAPOLIS   CLOUDY    40  34  79 NW13      29.82R
-EAGLE CREEK   CLOUDY    40  33  76 NW10      29.81R
KOKOMO +       CLOUDY    38  37  97 NW12      29.81R FOG
MARION +       CLOUDY    37  37 100 NW8       29.80R FOG
MT COMFORT *+  CLOUDY    37  37 100 NW9       29.81R
SHELBYVILLE    CLOUDY    41  36  82 NW12      29.80R
ZIONSVILLE +   CLOUDY    38  35  89 NW7       29.82R

$$

INZ033-034-041-042-049-050-058-059-241200-
EAST CENTRAL INDIANA

CITY           SKY/WX    TMP DP  RH WIND       PRES   REMARKS
MUNCIE         CLOUDY    40  38  93 NW13      29.78R FOG

$$

INZ060-061-067>069-081>083-085>088-241200-
SOUTHWEST INDIANA

CITY           SKY/WX    TMP DP  RH WIND       PRES   REMARKS
EVANSVILLE     CLOUDY    41  34  76 VRB3      29.89R
HUNTINGBURG *+ CLOUDY    40  34  79 NW10      29.88R
WASHINGTON +   CLOUDY    40  34  80 NW6       29.88R

$$

INZ062-063-066-070>080-084-089>092-241200-
SOUTH CENTRAL AND SOUTHEAST INDIANA

CITY           SKY/WX    TMP DP  RH WIND       PRES   REMARKS
BLOOMINGTON    CLOUDY    40  33  76 NW5       29.84R
MADISON *+     CLOUDY    39  37  93 W8        29.83R
NORTH VERNON + CLOUDY   N/A N/A N/A NW7       29.81S HAZE
SEYMOUR +      CLOUDY    41  37  87 NW7       29.83R

$$




USA.gov is the U.S. government's official web portal to all federal, state and local government web resources and services.